SCP
1 1 0 0 0 0 0 0 0 0 0 0 0 0 0 0 0 0 0 0 0 0 0 0 0 0 0 0 0 0 0 0 0 0 0 0 0 0
1 1 1 0 0 0 0 0 0 0 0 0 0 0 0 0 0 0 0 0 0 0 0 0 0 0 0 0 0 0 0 0 0 0 0 0 0 0
1 1 1 0 0 0 0 0 0 0 0 0 0 0 0 0 0 0 0 0 0 0 0 0 0 0 0 0 0 0 0 0 0 0 0 0 0 0
0 0 0 0 0 0 0 0 0 0 0 0 0 0 0 0 0 0 0 0 0 0 0 0 0 0 0 0 0 0 0 0 0 0 0 0 0 0
0 0 0 0 0 0 0 0 0 0 0 0 0 0 0 0 0 0 0 0 0 0 0 0 0 0 0 0 0 0 0 0 0 0 0 0 0 0
0 0 0 0 0 0 0 0 0 0 0 0 0 0 0 0 0 0 0 0 0 0 0 0 0 0 0 0 0 0 0 0 0 0 0 0 0 0
0 0 0 0 0 0 0 0 0 0 0 0 0 0 0 0 0 0 0 0 0 0 0 0 0 0 0 0 0 0 0 0 0 0 0 0 0 0
0 0 0 0 0 0 0 0 0 0 0 0 0 0 0 0 0 0 0 0 0 0 0 0 0 0 0 0 0 0 0 0 0 0 0 0 0 0
0 0 0 0 0 0 0 0 0 0 0 0 0 0 0 0 0 0 0 0 0 0 0 0 0 0 0 0 0 0 0 0 0 0 0 0 0 0
0 0 0 0 0 0 0 0 0 0 0 0 0 0 0 0 0 0 0 0 0 0 0 0 0 0 0 0 0 0 0 0 0 0 0 0 0 0
0 0 0 0 0 0 0 0 0 0 0 0 0 0 0 0 0 0 0 0 0 0 0 0 0 0 0 0 0 0 0 0 0 0 0 0 0 0
0 0 0 0 0 0 0 0 0 0 0 0 0 0 0 0 0 0 0 0 0 0 0 0 0 0 0 0 0 0 0 0 0 0 0 0 0 0
0 0 0 0 0 0 0 0 0 0 0 0 0 0 0 0 0 0 0 0 0 0 0 0 0 0 0 0 0 0 0 0 0 0 0 0 0 0
0 0 0 0 0 0 0 0 0 0 0 0 0 0 0 0 0 0 0 0 0 0 0 0 0 0 0 0 0 0 0 0 0 0 0 0 0 0
0 0 0 0 0 0 0 0 0 0 0 0 0 0 0 0 0 0 0 0 0 0 0 0 0 0 0 0 0 0 0 0 0 0 0 0 0 0
0 0 0 0 0 0 0 0 0 0 0 0 0 0 0 0 0 0 0 0 0 0 0 0 0 0 0 0 0 0 0 0 0 0 0 0 0 0
0 0 0 0 0 0 0 0 0 0 0 0 0 0 0 0 0 0 0 0 0 0 0 0 0 0 0 0 0 0 0 0 0 0 0 0 0 0
0 0 0 0 0 0 0 0 0 0 0 0 0 0 0 0 0 0 0 0 0 0 0 0 0 0 0 0 0 0 0 0 0 0 0 0 0 0
0 0 0 0 0 0 0 0 0 0 0 0 0 0 0 0 0 0 0 0 0 0 0 0 0 0 0 0 0 0 0 0 0 0 0 0 0 0
0 0 0 0 0 0 0 0 0 0 0 0 0 0 0 0 0 0 0 0 0 0 0 0 0 0 0 0 0 0 0 0 0 0 0 0 0 0
0 0 0 0 0 0 0 0 0 0 0 0 0 0 0 0 0 0 0 0 0 0 0 0 0 0 0 0 0 0 0 0 0 0 0 0 0 0
0 0 0 0 0 0 0 0 0 0 0 0 0 0 0 0 0 0 0 0 0 0 0 0 0 0 0 0 0 0 0 0 0 0 0 0 0 0
0 0 0 0 0 0 0 0 0 0 0 0 0 0 0 0 0 0 0 0 0 0 0 0 0 0 0 0 0 0 0 0 0 0 0 0 0 0
Wind_Speed
1 2 1 1 1 1 1 2 2 2 3 3 2 2 2 2 5 4 4 8 10 10 10 10 10 10 10 11 11 12 12 12 13 14 14 15 16 16
1 1 1 1 1 1 1 1 2 3 3 2 2 3 3 4 6 4 4 9 10 10 10 10 10 10 10 10 11 12 12 13 13 14 15 15 16 17
1 1 1 1 1 1 1 1 1 2 3 3 2 3 3 4 5 3 3 3 4 9 10 10 10 10 10 11 11 12 13 13 13 14 15 15 16 17
1 1 1 1 1 1 1 1 2 2 2 4 3 3 3 3 4 4 4 4 4 8 10 10 10 10 10 11 11 11 12 12 13 13 14 15 16 17
1 1 2 1 1 1 1 1 1 1 1 2 4 3 3 3 4 4 4 4 4 6 8 8 9 10 10 11 11 11 12 12 13 13 14 15 16 16
1 1 2 2 2 2 1 1 1 1 1 2 3 3 3 3 3 4 5 4 4 5 6 6 8 10 10 11 11 12 12 12 13 13 14 15 15 16
0 1 1 1 1 1 1 1 1 1 1 2 2 3 3 3 3 3 5 5 5 3 4 4 5 4 5 8 10 11 12 13 14 14 15 15 16 17
1 1 1 1 1 1 2 2 1 1 2 2 2 3 4 4 3 4 4 5 5 3 4 6 4 4 4 4 9 13 13 13 14 14 15 16 17 17
0 0 1 1 2 0 1 2 3 4 4 2 3 3 4 4 3 4 4 4 5 5 5 6 4 4 4 6 12 12 12 13 14 15 16 17 17 17
0 0 0 1 1 1 1 1 2 2 3 2 2 3 3 3 2 3 4 4 4 3 3 4 4 5 6 5 9 11 13 14 16 16 16 16 17 18
1 1 1 0 2 2 1 1 2 2 4 4 4 4 5 5 4 2 3 3 4 4 2 2 3 6 5 4 5 11 13 15 16 16 17 17 18 17
1 1 2 2 2 2 1 1 1 2 2 3 4 5 4 4 5 2 2 3 3 3 2 3 3 5 5 3 3 5 7 11 15 16 17 18 18 10
1 1 1 3 4 4 3 0 2 2 1 1 2 2 2 2 3 3 2 2 3 4 3 3 4 4 4 6 5 4 4 5 6 9 13 17 17 13
0 1 1 4 4 5 3 2 3 3 1 1 2 2 3 3 3 3 3 3 3 4 5 4 3 4 5 6 6 5 5 5 5 6 7 13 13 15
0 2 3 4 4 3 4 4 3 2 1 1 2 2 2 2 3 3 3 3 3 3 4 4 4 4 4 5 6 6 6 6 5 5 6 7 7 7
1 1 3 4 3 3 3 3 2 1 1 1 2 2 2 2 2 3 3 4 4 4 4 4 4 4 5 6 6 7 6 6 6 7 8 7 7 6
0 1 1 1 1 2 2 2 1 2 2 2 2 2 2 3 3 3 3 3 3 4 5 4 4 4 6 6 6 6 6 6 6 7 8 9 8 6
1 1 0 0 1 1 2 2 2 2 2 2 2 2 3 3 3 3 3 3 4 4 5 5 5 5 4 4 6 5 5 5 6 7 6 8 9 7
1 0 0 1 1 1 1 2 2 2 2 2 2 2 2 3 3 3 3 3 4 4 5 4 4 4 6 7 5 4 4 7 7 7 6 6 9 10
0 1 1 1 1 1 2 2 2 2 2 2 2 3 3 3 3 3 3 4 4 5 5 4 3 4 5 6 7 7 8 7 7 8 8 7 8 11
1 1 1 1 2 2 2 2 2 2 2 2 2 3 3 3 3 3 4 6 5 4 5 5 5 8 5 4 5 7 6 8 9 8 8 8 8 6
2 2 2 2 2 2 2 2 2 2 2 2 3 3 3 3 4 4 4 4 4 5 6 5 5 5 3 4 7 8 8 8 9 12 11 9 5 5
2 2 2 2 2 2 2 2 3 3 2 3 3 3 3 3 4 4 4 4 4 5 5 5 5 4 4 4 6 7 9 9 7 7 6 9 11 14
Wind_Direction
171 166 157 156 142 160 169 176 188 259 276 281 295 310 318 313 318 320 313 320 324 324 321 320 320 320 320 320 319 319 318 317 315 313 311 310 311 311
146 141 145 134 123 141 181 205 199 208 253 267 273 300 313 316 322 325 315 324 325 325 324 323 324 324 324 322 322 321 320 318 317 314 312 311 311 311
137 146 155 137 148 169 190 210 224 204 248 282 281 299 307 310 317 316 310 307 310 320 320 321 324 325 324 325 325 322 321 319 317 316 316 313 312 312
186 169 178 150 181 200 198 226 234 230 231 278 298 307 304 303 307 312 316 315 308 316 320 322 325 328 328 329 330 329 327 324 321 319 318 317 316 314
196 206 208 175 200 232 234 238 245 263 247 265 293 305 310 314 316 313 309 308 312 319 321 324 330 328 329 329 329 329 328 325 322 320 319 318 317 315
196 220 221 200 208 218 226 236 246 279 285 282 294 308 313 316 322 321 320 319 313 319 319 325 326 325 327 328 327 327 326 324 323 322 320 319 318 316
251 274 267 243 241 236 241 228 218 264 288 295 296 310 316 327 323 319 317 320 313 316 318 313 316 315 320 323 324 325 327 327 326 324 322 320 318 315
171 307 306 285 303 347 326 295 267 263 271 276 287 293 299 308 313 314 318 324 315 324 323 309 311 306 310 309 319 325 327 330 330 327 325 322 318 315
170 241 314 344 9 360 357 356 346 335 312 286 275 281 288 295 300 305 307 307 297 308 316 301 310 301 305 315 322 324 329 332 333 332 329 326 323 320
36 323 289 313 331 6 82 35 12 3 336 322 269 279 291 291 280 294 298 304 298 299 312 296 308 305 311 309 319 327 333 336 335 333 331 330 329 327
21 10 5 314 321 2 51 34 8 6 4 349 336 333 331 330 332 341 329 327 317 312 317 300 308 311 302 291 308 328 332 333 332 331 331 331 330 328
2 2 347 341 325 346 60 83 345 330 342 358 3 357 351 347 351 344 310 314 316 306 318 326 312 325 313 293 301 318 325 326 330 331 330 330 331 329
334 341 318 331 341 341 355 15 292 327 359 1 350 349 353 355 348 339 326 299 294 286 297 318 307 310 296 303 305 304 312 318 324 323 326 328 329 329
247 300 310 334 348 351 351 335 342 6 20 2 355 347 346 343 337 331 328 318 289 280 288 295 289 297 302 301 301 308 313 311 313 313 316 323 324 323
278 322 344 357 3 4 355 353 5 18 6 354 342 332 328 319 322 326 329 324 317 304 299 291 285 292 287 288 294 301 310 310 309 312 315 316 314 315
29 9 8 11 13 3 360 8 8 346 348 340 326 319 323 329 330 324 324 328 329 323 311 296 288 284 287 283 282 290 296 299 311 313 311 306 303 299
36 84 66 36 21 9 1 2 357 351 355 344 333 331 331 332 329 326 320 323 320 315 318 320 311 288 267 270 284 287 293 296 300 312 316 312 305 301
35 95 59 9 338 334 335 335 332 330 332 329 326 325 324 324 324 325 321 320 316 312 313 318 325 326 317 284 245 276 292 295 303 306 305 306 306 308
73 136 264 279 294 299 296 301 303 305 307 309 312 314 315 316 317 317 317 317 313 309 310 315 324 330 328 320 301 263 292 304 307 306 301 295 297 302
142 229 252 261 264 271 279 289 294 299 304 306 306 305 307 308 309 311 309 308 308 308 310 311 311 311 304 299 297 294 290 291 299 304 304 297 286 288
261 251 245 246 255 259 267 274 280 284 288 292 294 298 301 304 305 304 302 304 308 306 307 306 298 305 296 291 293 297 297 294 292 293 302 304 305 307
261 253 251 247 252 254 257 266 277 278 279 279 283 290 293 296 300 301 299 299 298 297 298 299 303 308 302 300 300 303 307 310 307 302 291 280 290 303
263 260 259 256 253 253 253 260 265 271 271 275 280 285 292 295 296 294 294 293 297 300 304 306 311 309 300 294 298 302 306 313 317 320 309 304 297 289